Weather History for Ellensburg, WA

Change the Weather History Date:

Thursday, September 26, 2013

  Actual Average (KYKM) Record (KYKM)
Temperature  
Mean Temperature 57 °F 57 °F  
Max Temperature 66 °F 74 °F 90 °F (1949)
Min Temperature 50 °F 40 °F 26 °F (1972)
Degree Days  
Heating Degree Days 8 8  
Month to date heating degree days 123  
Since 1 July heating degree days 171  
Cooling Degree Days 0 0  
Month to date cooling degree days 31  
Year to date cooling degree days 471  
Growing Degree Days 7 (Base 50)    
Moisture  
Dew Point 39 °F    
Average Humidity 56    
Maximum Humidity 68    
Minimum Humidity 38    
Precipitation  
Precipitation 0.00 in 0.02 in 0.62 in (1948)
Month to date precipitation 0.31  
Year to date precipitation 5.08  
Snow  
Snow 0.00 in 0.00 in 0.00 in (2002)
Month to date snowfall 0.0  
Year to date snowfall 8.6  
Since 1 July snowfall 0.0  
Snow Depth -    
Sea Level Pressure  
Sea Level Pressure 30.02 in    
Wind  
Wind Speed 11 mph (NW)    
Max Wind Speed 16 mph    
Max Gust Speed 18 mph    
Visibility 10 miles    
Events      
T = Trace of Precipitation, MM = Missing Value Source: NWS Daily Summary

Daily Weather History Graph

Daily Weather History Graph

Search for Another Location

Airport:

Trip Planner

Search our weather history database for the weather conditions in past years. The results will help you decide how hot, cold, wet, or windy it might be!

Date:

Astronomy

Sep. 26, 2013 Rise Set
Actual Time 6:54 AM PDT 6:51 PM PDT
Civil Twilight 6:24 AM PDT 7:21 PM PDT
Nautical Twilight 5:48 AM PDT 7:56 PM PDT
Astronomical Twilight 5:12 AM PDT 8:33 PM PDT
Moon 11:34 PM PDT (9/26) 2:10 PM PDT (9/26)
Length of Visible Light 12h 57m
Length of Day
11h 56m
Waning Gibbous, 53% of the Moon is Illuminated
Sep 26
Waning Gibbous
Sep 26
Last Quarter
Oct 4
New
Oct 11
First Quarter
Oct 18
Full

Hourly Weather History & Observations

Time (PDT) Temp. Dew Point Humidity Pressure Visibility Wind Dir Wind Speed Gust Speed Precip Events Conditions
12:53 AM 50.0 °F 39.0 °F 66% 29.94 in 10.0 mi North 12.7 mph - N/A   Clear
1:53 AM 50.0 °F 39.0 °F 66% 29.94 in 10.0 mi NNW 15.0 mph - N/A   Overcast
2:53 AM 51.1 °F 39.0 °F 63% 29.96 in 10.0 mi NNW 13.8 mph - N/A   Overcast
3:53 AM 50.0 °F 39.0 °F 66% 29.96 in 10.0 mi NNW 11.5 mph - N/A   Overcast
4:53 AM 50.0 °F 39.0 °F 66% 29.96 in 10.0 mi NW 10.4 mph - N/A   Overcast
5:53 AM 50.0 °F 39.0 °F 66% 29.97 in 10.0 mi NW 9.2 mph - N/A   Overcast
6:53 AM 50.0 °F 37.9 °F 63% 29.99 in 10.0 mi NNW 11.5 mph - N/A   Overcast
7:53 AM 50.0 °F 39.0 °F 66% 30.01 in 10.0 mi NNW 10.4 mph - N/A   Overcast
8:53 AM 52.0 °F 39.0 °F 61% 30.03 in 10.0 mi NNW 12.7 mph - N/A   Overcast
9:53 AM 53.1 °F 39.0 °F 59% 30.04 in 10.0 mi NW 8.1 mph 18.4 mph N/A   Overcast
10:53 AM 57.9 °F 39.9 °F 51% 30.04 in 10.0 mi NW 8.1 mph - N/A   Unknown
11:53 AM 61.0 °F 37.0 °F 41% 30.04 in 10.0 mi Variable 4.6 mph - N/A   Overcast
12:53 PM 61.0 °F 37.9 °F 42% 30.03 in 10.0 mi NW 6.9 mph - N/A   Overcast
1:53 PM 61.0 °F 37.0 °F 41% 30.03 in 10.0 mi WNW 4.6 mph - N/A   Overcast
2:53 PM 63.0 °F 37.0 °F 38% 30.02 in 10.0 mi WSW 4.6 mph - N/A   Overcast
3:53 PM 63.0 °F 37.9 °F 40% 30.02 in 10.0 mi WNW 12.7 mph - N/A   Overcast
4:53 PM 63.0 °F 37.9 °F 40% 30.02 in 10.0 mi WNW 6.9 mph - N/A   Overcast
5:53 PM 64.0 °F 39.0 °F 40% 30.03 in 10.0 mi WNW 9.2 mph - N/A   Mostly Cloudy
6:53 PM 57.0 °F 39.0 °F 51% 30.05 in 10.0 mi NW 16.1 mph - N/A   Scattered Clouds
7:53 PM 55.9 °F 41.0 °F 57% 30.06 in 10.0 mi NW 12.7 mph - N/A   Mostly Cloudy
8:53 PM 54.0 °F 39.9 °F 59% 30.07 in 10.0 mi NW 12.7 mph - N/A   Clear
9:53 PM 51.1 °F 39.9 °F 66% 30.09 in 10.0 mi NW 9.2 mph - N/A   Clear
10:53 PM 51.1 °F 39.9 °F 66% 30.08 in 10.0 mi WNW 6.9 mph - N/A   Clear
11:53 PM 50.0 °F 39.9 °F 68% 30.07 in 10.0 mi NW 9.2 mph - N/A   Clear